Regional Weather Roundup
Issued by NWS

Home | Current Version | Previous Version | Text Only | Print | Product List | Glossary On
Versions: 1 2 3 4 5 6 7 8 9 10 11 12 13 14 15 16 17 18 19 20 21 22 23 24 25 26 27 28
000
ASUS42 KKEY 010410
RWRKEY

FLORIDA REGIONAL WEATHER ROUNDUP FOR THE FLORIDA KEYS
NATIONAL WEATHER SERVICE KEY WEST FLORIDA
1200 AM EDT SUN MAY 01 2016

...SOUTH FLORIDA AND THE KEYS...

CITY           SKY/WX    TMP DP  RH WIND       PRES   REMARKS
FORT MYERS     PTCLDY    73  62  68 E7        29.99R
SW REGIONAL AP PTCLDY    72  62  71 E8        30.00R
NAPLES         PTCLDY    74  65  73 E9        29.99R
MIAMI          MOCLDY    78  69  73 E13G21    29.99S
WEST KENDALL   PTCLDY    76  69  79 E13       29.98F
HOMESTEAD      MOCLDY    79  70  73 E13       29.98S
MARATHON       PTCLDY    79  71  76 E10G17    29.96R
BOCA CHICA NAS CLEAR     78  68  71 E17       29.96R
KEY WEST INTL  PTCLDY    78  69  73 E16G28    29.96S

...INTERNATIONAL WEATHER...

CITY           SKY/WX    TMP DP  RH WIND       PRES   REMARKS
NASSAU BAHAMAS MOCLDY    77  70  78 E7        30.01R
CANCUN MEXICO  PTCLDY    82  77  83 E12       29.86R HX  91
COZUMEL MEXICO MOCLDY    77  75  94 SE13      29.84S

ADJACENT COASTAL WATERS...

STATION/POSITION TIME  SKY/WX   TEMP    WIND        PRES    WAVE
                                AIR SEA DIR/SP/G            HT/PER
                 (UTC)          (F)     (DEG/KT/KT) (MB)    (FT/S)
PULASKI SHOAL LI 0400            78     120/ 19/ 22 1014.5R
SAND KEY         0350            78     120/ 21/ 25 1014.6R
SOMBRERO KEY     NOT AVBL
LONG KEY         0300            79 81  100/ 18/ 21 1014.8F
MOLASSES REEF    0300            79 81   90/ 16/ 18 1015.0
FOWEY ROCKS      NOT AVBL

$$




USA.gov is the U.S. government's official web portal to all federal, state and local government web resources and services.